This is the latest recevied weather packets stored in our database for station/object AE6DC-5. If no packets are shown the sender has not sent any weather packets the latest 10 day(s).
| Time | Temp. | Humidity | Pressure | Rain* | Wind** | Luminosity | Snow |
|---|---|---|---|---|---|---|---|
| 1777802898 | 12.22° C | 89% | 1011.6 hPa | 0 mm | - | 0 W/m² | - |
| 1777802184 | 12.22° C | 89% | 1011.6 hPa | 0 mm | - | 0 W/m² | - |
| 1777801824 | 12.22° C | 89% | 1011.7 hPa | 0 mm | - | 0 W/m² | - |
| 1777799305 | 12.78° C | 89% | 1012 hPa | 0 mm | - | 0 W/m² | - |
| 1777798579 | 12.78° C | 89% | 1012.1 hPa | 0 mm | - | 0 W/m² | - |
| 1777794618 | 12.78° C | 89% | 1012.7 hPa | 0 mm | - | 0 W/m² | - |
| 1777793178 | 12.78° C | 89% | 1012.5 hPa | 0 mm | - | 0 W/m² | - |
| 1777791022 | 12.78° C | 89% | 1012.6 hPa | 0 mm | - | 0 W/m² | - |
| 1777789579 | 12.22° C | 89% | 1012.6 hPa | 0 mm | - | 0 W/m² | - |
| 1777788499 | 12.22° C | 89% | 1012.7 hPa | 0 mm | - | 0 W/m² | - |
| 1777787057 | 12.78° C | 89% | 1013 hPa | 0 mm | - | 0 W/m² | - |
| 1777784544 | 12.78° C | 89% | 1013.1 hPa | 0 mm | - | 0 W/m² | - |
| 1777783458 | 12.78° C | 89% | 1013.1 hPa | 0 mm | - | 0 W/m² | - |
| 1777783098 | 12.78° C | 89% | 1013.1 hPa | 0 mm | - | 0 W/m² | - |
| 1777782758 | 12.78° C | 89% | 1013 hPa | 0 mm | - | 0 W/m² | - |
| 1777780219 | 12.22° C | 90% | 1012.8 hPa | 0 mm | - | 0 W/m² | - |
| 1777779159 | 12.78° C | 90% | 1012.6 hPa | 0 mm | - | 0 W/m² | - |
| 1777778779 | 12.78° C | 89% | 1012.6 hPa | 0 mm | - | 0 W/m² | - |
| 1777778419 | 12.78° C | 89% | 1012.5 hPa | 0 mm | - | 0 W/m² | - |
| 1777775180 | 12.22° C | 88% | 1012.3 hPa | 0 mm | - | 16 W/m² | - |
| 1777772661 | 12.78° C | 88% | 1012.5 hPa | 0 mm | - | 47 W/m² | - |
| 1777771941 | 12.22° C | 88% | 1012.5 hPa | 0 mm | - | 71 W/m² | - |
| 1777769059 | 12.22° C | 87% | 1012.6 hPa | 0 mm | - | 136 W/m² | - |
| 1777765460 | 12.22° C | 88% | 1012.8 hPa | 0 mm | - | 252 W/m² | - |
| 1777764760 | 12.22° C | 88% | 1012.8 hPa | 0 mm | - | 315 W/m² | - |
* Rain latest hour (hover to see other rain measurements)
** Current wind speed in m/s (hover to see current wind gust speed)